Location: Beverley
(50.2667°N, 107.9667°W)
Time: 00:32:43
(UTC+00:00)

Envisat - Pass Details

Date: 24 January 2022
Orbit: 764 x 765 km, 98.2° (Epoch: 22 May)

Event Time Altitude Azimuth Distance (km) Brightness Sun altitude
Rises 12:10:56 0° 15° (NNE) 3,243 6.4 -26.2°
Reaches altitude 10° 12:13:15 10° 16° (NNE) 2,313 5.7 -25.8°
Maximum altitude 12:18:22 79° 104° (ESE) 785 3.0 -25.0°
Drops below altitude 10° 12:23:26 10° 191° (S) 2,297 5.4 -24.2°
Sets 12:25:43 0° 193° (SSW) 3,219 6.1 -23.8°
